Regional Weather Roundup
Issued by NWS Jackson, KY

Home | Current Version | Previous Version | Text Only | Print | Product List | Glossary On
Versions: 1 2 3 4 5 6 7 8 9 10 11 12 13 14 15 16 17 18 19 20 21 22 23 24 25 26 27 28 29 30 31 32 33 34 35 36 37 38 39 40 41 42 43 44 45 46 47 48 49 50
000
ASUS43 KJKL 260010
RWRJKL

EAST KENTUCKY HOURLY WEATHER ROUNDUP
NATIONAL WEATHER SERVICE JACKSON KY
800 PM EDT TUE APR 25 2017

NOTE: "FAIR" INDICATES FEW OR NO CLOUDS BELOW 12,000 FEET WITH
NO SIGNIFICANT WEATHER AND/OR OBSTRUCTIONS TO VISIBILITY.

* THESE REPORTS ARE NOT UNDER NWS QUALITY CONTROL AND MAY NOT
  REPORT WEATHER SUCH AS PRECIPITATION AND FOG.

KYZ079-080-083-085-087-088-110-112-115-119-120-260100
...EASTERN KENTUCKY...

CITY           SKY/WX    TMP DP  RH WIND       PRES   REMARKS
JACKSON        CLEAR     68  55  63 CALM      29.73F
6HR MIN TEMP:  67; 6HR MAX TEMP:  76;

LONDON         CLEAR     71  53  52 SW3       29.73S
6HR MIN TEMP:  69; 6HR MAX TEMP:  75;

SOMERSET*      CLEAR     68  52  56 CALM      29.74S
MONTICELLO*    CLEAR     70  56  61 W10       29.74S
6HR MIN TEMP:  68; 6HR MAX TEMP:  73;

WILLIAMSBURG*  CLEAR     72  55  56 E3        29.73
MIDDLESBORO*   CLOUDY    68  58  68 S3        29.75S
6HR MIN TEMP:  68; 6HR MAX TEMP:  72;

HARLAN APT*    CLOUDY    68  54  60 CALM      29.76S
PIKE CO APT*     N/A     67  56  67 CALM      29.75S
BIG SANDY APT* PTCLDY    68  57  68 CALM      29.74F
6HR MIN TEMP:  67; 6HR MAX TEMP:  71;

$$

KYZ035-036-041-042-044-050-067-078-099-260100
...CENTRAL KENTUCKY...

CITY           SKY/WX    TMP DP  RH WIND       PRES   REMARKS
MT STERLING*   CLEAR     70  57  64 CALM      29.73S
FLEMING/MASON* CLEAR     73  56  56 CALM      29.71F
DANVILLE*      CLEAR     66  55  68 CALM      29.73S
LEXINGTON      CLEAR     69  55  60 S5        29.71S
6HR MIN TEMP:  69; 6HR MAX TEMP:  74;

FRANKFORT      CLEAR     71  55  56 SE7       29.69S
6HR MIN TEMP:  69; 6HR MAX TEMP:  75;

LOUISVILLE     MOCLDY    74  56  53 S12       29.66F
6HR MIN TEMP:  71; 6HR MAX TEMP:  77;

LEBANON*         N/A     68  57  68 S3        29.71S
GLASGOW*       CLEAR     71  55  57 S3        29.70S
BOWLING GREEN  CLEAR     73  56  54 S9        29.68F
6HR MIN TEMP:  72; 6HR MAX TEMP:  77;

$$

KYZ091>093-OHZ055-061-077-WVZ005-015-034-035-042-260100
...SOUTHERN OHIO/WEST VIRGINIA...

CITY           SKY/WX    TMP DP  RH WIND       PRES   REMARKS
COVINGTON      PTCLDY    70  58  65 S8        29.68F
COLUMBUS       CLOUDY    72  55  55 SE8       29.71S
DAYTON         PTCLDY    71  55  56 SE9       29.68F
WILMINGTON     CLEAR     70  58  65 SE3       29.69F
HUNTINGTON     MOCLDY    70  56  61 S3        29.72S
CHARLESTON     MOCLDY    67  57  70 S5        29.73S
PINEVILLE*     CLOUDY    65  59  80 MISG      29.81R
BECKLEY        CLOUDY    60  54  80 N5        29.78S
BLUEFIELD      LGT RAIN  56  55  97 CALM      29.79S FOG
$$

VAZ002-007-008-TNZ017-027-036-066-071-260100
...SOUTHWEST VIRGINIA/EAST TENNESSEE...

CITY           SKY/WX    TMP DP  RH WIND       PRES   REMARKS
WISE*          CLOUDY    63  54  72 SW3       29.81R
ABINGDON*      CLOUDY    65  58  79 W8        29.78R
BRISTOL        MOCLDY    65  56  72 SW7       29.77R
KNOXVILLE      CLEAR     68  54  60 E6        29.74R
LAFOLLETTE*    PTCLDY    70  57  64 CALM      29.76F
OAK RIDGE      CLEAR     70  54  56 SE3       29.75R
CROSSVILLE     CLEAR     67  53  61 SW3       29.76S
NASHVILLE      PTCLDY    73  57  57 SE7       29.69F
$$

...KEY TO REMARKS...
VSB - VISIBILITY IN MILES
WCI - WIND CHILL INDEX
HX  - HEAT INDEX

$$



USA.gov is the U.S. government's official web portal to all federal, state and local government web resources and services.